Find Starlink 2644

NORAD ID: 48442 Int'l Des: 2021-040 Owner: SPXS Country: US Constellation: starlink operational
LEOCIRCULAR

当前视图

正在加载3D地球...

About Starlink 2644

Starlink 2644 (NORAD 48442) is a starlink constellation satellite (v1.0) launched May 9, 2021 by SPXS of US. It operates in LEO, CIRCULAR orbit with a mass of 260.00 kg.

即将过境

Passes for default location (London). Set your location on the main map for personalized predictions.

高度历史

Loading altitude history...

两行轨道根数

1 48442U 21040Q 26263.60502845 .00097187 00000-0 56959-3 0 9997
2 48442 53.1551 327.5198 0007876 7.8708 352.2436 15.77523882296872
Epoch: Sep 20, 2026 • Age: 11 hours

当前状态

高度 332.2 km
远地点 / 近地点 N/A
速度 7.71 km/s
星下点 6.47°N, 47.75°W
发射日期 May 9, 2021
运行时间 5.3 years
类型 internet

技术详情

分类 Payload
质量 260.00 kg
干质量 248.00 kg
长度 0.20 m
跨度 9.00 m
形状 ? Box + pan
制造商 SPXS
平台类型 Starlink
阶段状态 In Orbit
所有者/国家 SPXS/US

Most Searched